Overview Statistics Trail Chart Weather Telemetry Raw packets
 

This is the latest recevied weather packets stored in our database for station/object F1DKL-13. If no packets are shown the sender has not sent any weather packets the latest 10 day(s).

<< 1 2 3 4 5 6 7 >>
Time Temp. Humidity Pressure Rain* Wind** Luminosity Snow
1778069105 17.22° C 49% 1017.2 hPa 1.02 mm - - -
1778069105 17.22° C 49% 1017.2 hPa 1.02 mm - - -
1778068805 17.22° C 51% 1017.2 hPa 1.02 mm - - -
1778068805 17.22° C 51% 1017.2 hPa 1.02 mm - - -
1778068505 16.67° C 58% 1017.2 hPa 1.02 mm - - -
1778068205 15.56° C 58% 1017.2 hPa 1.02 mm - - -
1778067905 14.44° C 58% 1017.2 hPa 1.02 mm - - -
1778067905 14.44° C 58% 1017.2 hPa 1.02 mm - - -
1778067605 14.44° C 58% 1017.2 hPa 1.02 mm - - -
1778067305 14.44° C 55% 1017.2 hPa 1.02 mm - - -
1778067005 15° C 56% 1017.2 hPa 1.02 mm - - -
1778066704 14.44° C 54% 1017.2 hPa 1.02 mm - - -
1778066405 15° C 54% 1017.2 hPa 1.02 mm - - -
1778066104 15.56° C 53% 1017.2 hPa 0 mm - - -
1778065805 16.11° C 55% 1017.2 hPa 0 mm - - -
1778065804 16.11° C 55% 1017.2 hPa 0 mm - - -
1778065505 15.56° C 55% 1017.2 hPa 0 mm - - -
1778065504 15.56° C 55% 1017.2 hPa 0 mm - - -
1778065205 15.56° C 51% 1017.2 hPa 0 mm - - -
1778064905 16.11° C 52% 1018.3 hPa 1.02 mm - - -
1778064634 16.67° C 53% 1018.3 hPa 1.02 mm - - -
1778064305 16.67° C 57% 1018.3 hPa 1.02 mm - - -
1778064004 16.67° C 62% 1018.3 hPa 1.02 mm - - -
1778063705 15.56° C 64% 1018.3 hPa 1.02 mm - - -
1778063404 14.44° C 61% 1018.3 hPa 1.02 mm - - -

* Rain latest hour (hover to see other rain measurements)
** Current wind speed in m/s (hover to see current wind gust speed)